Triuchirapalli, India

1:09 PM IST on September 21, 2019 (GMT +0530)
Tiruchirappalli

Weather History for VOTR - August, 2019

Change the Weather History Date:

Thursday, August 22, 2019

  Actual Average Record
Temperature  
Mean Temperature 84 °F -  
Max Temperature 93 °F 91 °F 102 °F (2018)
Min Temperature 76 °F 78 °F 73 °F (1996)
Cooling Degree Days 20    
Growing Degree Days 34 (Base 50)    
Moisture  
Dew Point 74 °F    
Average Humidity 70    
Maximum Humidity 89    
Minimum Humidity 38    
Precipitation  
Precipitation 0.00 in - - ()
Sea Level Pressure  
Sea Level Pressure 29.74 in    
Wind  
Wind Speed 7 mph ()    
Max Wind Speed 13 mph    
Max Gust Speed -    
Visibility 3.4 miles    
Events      
Averages and records for this station are not official NWS values.
T = Trace of Precipitation, MM = Missing Value Source: Averaged Metar Reports

Daily Weather History Graph

Daily Weather History Graph

Search for Another Location

Airport or City:

Astronomy

Aug. 22, 2019 Rise Set
Actual Time 6:05 AM IST 6:30 PM IST
Civil Twilight 5:43 AM IST 6:52 PM IST
Nautical Twilight 5:18 AM IST 7:17 PM IST
Astronomical Twilight 4:53 AM IST 7:42 PM IST
Moon 11:13 PM IST (8/22) 11:09 AM IST (8/22)
Length of Visible Light 13h 08m
Length of Day
12h 25m
Waning Gibbous, 64% of the Moon is Illuminated
Aug 22
Waning Gibbous
Aug 23
Last Quarter
Aug 30
New
Sep 6
First Quarter
Sep 14
Full

Hourly Weather History & Observations

Time (IST) Temp. Heat Index Dew Point Humidity Pressure Visibility Wind Dir Wind Speed Gust Speed Precip Events Conditions
12:00 AM 78.8 °F - 75.2 °F 89% 29.80 in 1.9 mi West 6.9 mph - N/A   Light Drizzle
12:30 AM 78.8 °F - 75.2 °F 89% 29.80 in 1.9 mi WSW 6.9 mph - N/A   Light Drizzle
1:00 AM 78.8 °F - 75.2 °F 89% 29.80 in 1.9 mi SW 4.6 mph - N/A   Light Drizzle
2:00 AM 78.8 °F - 75.2 °F 89% 29.77 in 3.7 mi WSW 6.9 mph - N/A   Mostly Cloudy
2:30 AM 78 °F - 74 °F 84% 29.75 in 2 mi SW 4.6 mph - -   Haze
2:30 AM 77.0 °F - 73.4 °F 89% 29.74 in 3.7 mi SW 4.6 mph - N/A   Mostly Cloudy
3:00 AM 77.0 °F - 73.4 °F 89% 29.74 in 3.7 mi WSW 5.8 mph - N/A   Mostly Cloudy
3:30 AM 77.0 °F - 73.4 °F 89% 29.71 in 3.7 mi WSW 5.8 mph - N/A   Mostly Cloudy
4:30 AM 77.0 °F - 73.4 °F 89% 29.71 in 3.7 mi WSW 5.8 mph - N/A   Mostly Cloudy
5:00 AM 77.0 °F - 73.4 °F 89% 29.71 in 3.7 mi WSW 5.8 mph - N/A   Scattered Clouds
5:30 AM 78 °F - 74 °F 86% 29.72 in 2 mi WNW 9.2 mph - -   Haze
5:30 AM 78.8 °F - 75.2 °F 89% 29.71 in 3.7 mi WNW 9.2 mph - N/A   Scattered Clouds
6:00 AM 78.8 °F - 75.2 °F 89% 29.74 in 3.7 mi West 9.2 mph - N/A   Scattered Clouds
6:30 AM 78.8 °F - 73.4 °F 83% 29.74 in 3.7 mi West 9.2 mph - N/A   Scattered Clouds
7:00 AM 78.8 °F - 73.4 °F 83% 29.74 in 3.7 mi West 9.2 mph - N/A   Scattered Clouds
7:30 AM 80.6 °F 85.4 °F 73.4 °F 79% 29.74 in 3.7 mi West 9.2 mph - N/A   Scattered Clouds
8:30 AM 82 °F - 73 °F 68% 29.77 in 2 mi West 10.4 mph - -   Haze
8:30 AM 82.4 °F 88.2 °F 73.4 °F 74% 29.77 in 3.7 mi West 10.4 mph - N/A   Mostly Cloudy
9:00 AM 84.2 °F 90.9 °F 73.4 °F 70% 29.77 in 3.7 mi West 9.2 mph - N/A   Mostly Cloudy
9:30 AM 84.2 °F 90.9 °F 73.4 °F 70% 29.77 in 3.7 mi WSW 9.2 mph - N/A   Mostly Cloudy
10:00 AM 86.0 °F 93.4 °F 73.4 °F 66% 29.77 in 3.7 mi West 9.2 mph - N/A   Mostly Cloudy
10:30 AM 87.8 °F 95.6 °F 73.4 °F 62% 29.77 in 3.7 mi WSW 11.5 mph - N/A   Mostly Cloudy
11:00 AM 87.8 °F 93.8 °F 71.6 °F 58% 29.77 in 3.7 mi West 10.4 mph - N/A   Mostly Cloudy
11:30 AM 89 °F - 72 °F 49% 29.77 in 2 mi WSW 6.9 mph - -   Haze
12:00 PM 89.6 °F 96.2 °F 71.6 °F 55% 29.77 in 5.0 mi West 9.2 mph - N/A   Mostly Cloudy
12:30 PM 91.4 °F 98.4 °F 71.6 °F 52% 29.74 in 5.0 mi WSW 10.4 mph - N/A   Mostly Cloudy
1:00 PM 91.4 °F 98.4 °F 71.6 °F 52% 29.74 in 5.0 mi West 10.4 mph - N/A   Mostly Cloudy
1:30 PM 93.2 °F 100.5 °F 71.6 °F 49% 29.71 in 5.0 mi West 12.7 mph - N/A   Mostly Cloudy
2:00 PM 93.2 °F 100.5 °F 71.6 °F 49% 29.71 in 5.0 mi West 10.4 mph - N/A   Mostly Cloudy
2:30 PM 94 °F - 71 °F 38% 29.68 in 2 mi WNW 9.2 mph - -   Haze
2:30 PM 93.2 °F 100.5 °F 71.6 °F 49% 29.68 in 5.0 mi WNW 9.2 mph - N/A   Mostly Cloudy
3:00 PM 93.2 °F 100.5 °F 71.6 °F 49% 29.68 in 5.0 mi WSW 6.9 mph - N/A   Overcast
3:30 PM 93.2 °F 100.5 °F 71.6 °F 49% 29.68 in 5.0 mi West 9.2 mph - N/A   Partly Cloudy
4:00 PM 91.4 °F 98.4 °F 71.6 °F 52% 29.68 in 3.7 mi NNW 9.2 mph - N/A   Drizzle
4:30 PM 91.4 °F 98.4 °F 71.6 °F 52% 29.65 in 3.7 mi NNW 6.9 mph - N/A   Partly Cloudy
5:00 PM 91.4 °F 98.4 °F 71.6 °F 52% 29.68 in 3.7 mi NW 6.9 mph - N/A   Partly Cloudy
5:30 PM 87 °F - 74 °F 58% 29.68 in 2 mi NW 3.5 mph - -   Haze
5:30 PM 87.8 °F 95.6 °F 73.4 °F 62% 29.68 in 3.7 mi NW 3.5 mph - N/A   Mostly Cloudy
6:00 PM 86.0 °F 95.1 °F 75.2 °F 70% 29.71 in 3.7 mi South 3.5 mph - N/A   Mostly Cloudy
6:30 PM 86.0 °F 95.1 °F 75.2 °F 70% 29.71 in 3.7 mi South 3.5 mph - N/A   Mostly Cloudy
7:00 PM 86.0 °F 95.1 °F 75.2 °F 70% 29.71 in 3.7 mi SSW 6.9 mph - N/A   Light Drizzle
7:30 PM 86.0 °F 95.1 °F 75.2 °F 70% 29.74 in 3.1 mi SSW 6.9 mph - N/A   Haze
8:00 PM 86.0 °F 95.1 °F 75.2 °F 70% 29.74 in 3.1 mi SSW 9.2 mph - N/A   Haze
8:30 PM 83 °F - 75 °F 70% 29.74 in 2 mi SSW 5.8 mph - -   Haze
8:30 PM 84.2 °F 92.3 °F 75.2 °F 74% 29.74 in 3.1 mi SSW 5.8 mph - N/A   Haze
9:00 PM 82.4 °F 89.5 °F 75.2 °F 79% 29.74 in 3.1 mi SW 5.8 mph - N/A   Haze
9:30 PM 82.4 °F 89.5 °F 75.2 °F 79% 29.74 in 3.1 mi West 4.6 mph - N/A   Haze
10:00 PM 82.4 °F 89.5 °F 75.2 °F 79% 29.77 in 3.1 mi West 4.6 mph - N/A   Haze
10:30 PM 82.4 °F 89.5 °F 75.2 °F 79% 29.77 in 3.1 mi West 10.4 mph - N/A   Mostly Cloudy
11:00 PM 82.4 °F 89.5 °F 75.2 °F 79% 29.77 in 3.1 mi West 11.5 mph - N/A   Mostly Cloudy
11:30 PM 83 °F - 72 °F 63% 29.77 in 2 mi West 10.4 mph - -   Mist
11:30 PM 82.4 °F 88.2 °F 73.4 °F 74% 29.77 in 3.1 mi West 10.4 mph - N/A   Mostly Cloudy